Location: *
(37.5724°S, 58.0067°E)
Time: 22:33:21
(UTC+00:00)

Envisat - Visible Passes

Search period start: 26 November 2022 00:00
Search period end: 06 December 2022 00:00
Orbit: 763 x 765 km, 98.2° (Epoch: 26 November)

Date Brightness Start Highest point End Pass type
(mag) Time Alt. Az. Time Alt. Az. Time Alt. Az.
26 Nov 5.4 22:31:03 10° ENE 22:34:58 23° ESE 22:38:55 10° SSE visible
27 Nov 3.5 00:08:55 10° NNW 00:13:41 39° W 00:18:30 10° SSW visible
27 Nov 6.2 21:58:02 10° ESE 21:58:28 10° ESE 21:58:55 10° SE visible
27 Nov 3.0 23:31:32 10° NNE 23:36:38 88° ESE 23:41:49 10° SSW visible
28 Nov 4.4 22:55:05 10° NE 22:59:47 39° ESE 23:04:33 10° S visible
29 Nov 5.7 22:19:47 10° ENE 22:23:09 18° ESE 22:26:32 10° SSE visible
29 Nov 3.2 23:56:44 10° N 00:01:42 52° W 00:06:43 10° SSW visible
30 Nov 3.4 23:19:39 10° NNE 23:24:43 69° ESE 23:29:50 10° S visible
01 Dec 4.9 22:43:31 10° NE 22:47:56 30° ESE 22:52:22 10° S visible
02 Dec 5.8 22:08:48 10° E 22:11:22 14° ESE 22:13:55 10° SSE visible
02 Dec 3.0 23:44:39 10° N 23:49:43 68° WNW 23:54:52 10° SSW visible
03 Dec 3.9 23:07:52 10° NNE 23:12:48 52° ESE 23:17:48 10° S visible
04 Dec 5.3 22:32:05 10° ENE 22:36:05 24° ESE 22:40:08 10° SSE visible
05 Dec 6.1 21:58:28 10° ESE 21:59:35 11° ESE 22:00:42 10° SE visible
05 Dec 3.0 23:32:40 10° NNE 23:37:46 88° WNW 23:42:57 10° SSW visible
